Regional Weather Roundup
Issued by NWS

Home | Current Version | Previous Version | Graphics & Text | Print | Product List | Glossary On
Versions: 1 2 3 4 5 6 7 8 9 10 11 12 13 14 15 16 17 18 19 20 21 22 23 24 25 26 27 28 29 30 31 32 33 34 35 36 37 38 39 40 41 42 43 44 45 46 47 48 49 50
000
ASUS43 KLOT 190303
RWRIL

ILLINOIS REGIONAL WEATHER ROUNDUP
NATIONAL WEATHER SERVICE CHICAGO/ROMEOVILLE IL
1000 PM CDT MON SEP 18 2017

NOTE: "FAIR" INDICATES FEW OR NO CLOUDS BELOW 12,000 FEET WITH NO
SIGNIFICANT WEATHER AND/OR OBSTRUCTIONS TO VISIBILITY.

* THESE STATIONS ARE NOT UNDER NWS QUALITY CONTROL. THEY ALSO MAY NOT
  REPORT WEATHER SUCH AS PRECIPITATION OR FOG.

ILZ001-002-007-009-015-016-024-190400-
NORTHWEST ILLINOIS

CITY           SKY/WX    TMP DP  RH WIND       PRES   REMARKS
MOLINE         CLOUDY    70  67  90 CALM      29.95S
STERLING*        N/A     68  60  75 E6        29.97R
SAVANNA*       LGT RAIN  70  58  64 E6        29.96S
$$

ILZ003-004-008-010-011-017-018-190400-
NORTH CENTRAL ILLINOIS

CITY           SKY/WX    TMP DP  RH WIND       PRES   REMARKS
ROCKFORD       CLOUDY    65  55  70 E3        30.01R
FREEPORT*      CLOUDY    65  56  72 E6        30.01R
ROCHELLE*      CLOUDY    65  56  70 E9        29.99S
$$

ILZ005-006-012>014-019>023-190400-
NORTHEAST ILLINOIS

CITY           SKY/WX    TMP DP  RH WIND       PRES   REMARKS
CHICAGO-OHARE  CLOUDY    67  58  72 E10       30.00F
CHICAGO-MIDWAY CLOUDY    68  58  70 NE10      30.00F
AURORA         CLOUDY    65  56  72 E8        29.99S
LANSING*       MOCLDY    66  62  85 NE8       30.00S
JOLIET*        CLOUDY    68  57  68 NE7       29.99S
WAUKEGAN       CLOUDY    63 N/A N/A NE5       30.01F
DUPAGE AIRPORT CLOUDY    65  57  75 NE8       29.99F
KANKAKEE*      CLOUDY    65  57  76 NE5       29.99S
WHEELING       MOCLDY    67  60  78 NE7       30.02F
NORTHERLY ISL    N/A     66  59  78 NE10        N/A
$$

LMZ740>746-190400-
SOUTHERN LAKE MICHIGAN

STATION/POSITION SKY/WX   TEMP    WIND        PRES    VSBY  WAVE
                          AIR SEA DIR/SP/G                  HT/PER
                          (F)     (DEG/KT/KT) (MB)    (MI)  (FT/S)
SOUTHERN BUOY              67 68   30/  8/ 10 1016.7          2/ 5
WILMETTE HARBOR            66 69   40/ 10/ 12   N/A           2/ 5
HARRISON CRIB              67      50/ 10/ 12   N/A
CALUMET HARBOR             67      30/  7/  9 1015.7S
BURNS HARBOR               67      60/ 11/ 13 1016.3F
MICHIGAN CITY              67      30/ 13/ 14   N/A
MICHIGAN CITY 6N           67 68   70/ 12/ 16   N/A           2/ 4
ST. JOSEPH                 67 68   80/  8/ 10 1016.1F         2/ 3
$$

ILZ025>027-034>036-040-047-049-050-058-095>099-190400-
WEST-CENTRAL ILLINOIS

CITY           SKY/WX    TMP DP  RH WIND       PRES   REMARKS
QUINCY         CLOUDY    67  65  93 CALM      29.95S
GALESBURG*     RAIN      67  67  99 N3        29.98R
MACOMB*        LGT RAIN  68  67  98 CALM      29.97F
$$

ILZ028>032-037-038-041>044-048-051>054-059>061-190400-
CENTRAL ILLINOIS

CITY           SKY/WX    TMP DP  RH WIND       PRES   REMARKS
BLOOMINGTON    LGT RAIN  71  69  93 NW9       29.97S
DECATUR        HVY RAIN  72  70  93 W9        29.95R FOG
PEORIA         HVY RAIN  69  69 100 E6        29.96F FOG
LACON*         RAIN      66  63  88 E6        29.96R
LINCOLN*       CLOUDY    70  69  98 NW3       29.94F
SPRINGFIELD    LGT RAIN  71  69  93 CALM      29.95F
TAYLORVILLE    NOT AVBL
$$

ILZ033-039-045-046-055>057-062-063-190400-
EAST-CENTRAL ILLINOIS

CITY           SKY/WX    TMP DP  RH WIND       PRES   REMARKS
CHAMPAIGN      CLOUDY    71  69  93 E6        29.95F
MATTOON        CLOUDY    71  70  96 S6        29.94F
PARIS*         CLOUDY    71  70  95 SE6       29.97S
$$

ILZ079-100>102-190400-
SOUTHWEST ILLINOIS

CITY           SKY/WX    TMP DP  RH WIND       PRES   REMARKS
ALTON          MOCLDY    68  68 100 CALM      29.97S
CAHOKIA*       RAIN      72  68  87 CALM      29.96F FOG
SPARTA*        CLOUDY    74  71  88 CALM      29.97S
$$

ILZ064>066-069>071-074>076-080>082-084>086-088>090-092>094-190400-
SOUTH-CENTRAL ILLINOIS

CITY           SKY/WX    TMP DP  RH WIND       PRES   REMARKS
CARBONDALE     CLOUDY    70  70 100 S3        29.96S
MARION         PTCLDY    72  72 100 S5        29.98S
MT. VERNON       N/A     72  69  90 W3        29.96F
CENTRALIA*     CLOUDY    75  72  88 S5        29.95S
SALEM*         MOCLDY    76  70  80 S3        29.96S
METROPOLIS*    CLOUDY    73  72  96 CALM      29.97F
$$

ILZ067-068-072-073-078-083-087-091-190400-
SOUTHEAST ILLINOIS

CITY           SKY/WX    TMP DP  RH WIND       PRES   REMARKS
LAWRENCEVILLE  CLOUDY    71  71 100 SE3       29.97S
FLORA*         CLOUDY    73  68  84 S7        29.96F
FAIRFIELD*     PTCLDY    71  70  97 CALM      29.95F
HARRISBURG*    LGT RAIN  71  71  99 CALM      29.97F
ROBINSON*      MOCLDY    69  69  99 S3        29.97S
CARMI*         CLOUDY    70  70 100 SE3       29.97S FOG
$$

ABBREVIATIONS USED IN REMARKS
   TC - TEMPERATURE IN CELSIUS
  WCI - WIND CHILL INDEX
   HX - HEAT INDEX
  VSB - VISIBILITY
$$





USA.gov is the U.S. government's official web portal to all federal, state and local government web resources and services.